Home > Weather > Phnom Penh > Past weeks

Flag for Cambodia Weather for the Past 2 Weeks in Phnom Penh, Cambodia

Now
84 °F

Clear.


Feels Like: 91 °F
Forecast: 76 / 97 °F
Wind: 6 mph from South

Location: Phnom-Penh / Pochentong

Current Time: Feb 13, 2016 at 8:12:29 PM

Latest Report: Feb 13, 2016 at 7:30 PM


Visibility: 6 mi

Pressure: 29.80 "Hg

Humidity: 70%

Dew point: 73 °F

Location of Phnom PenhLocation

Historic Weather in Phnom Penh — Graph

°F

Phnom Penh Temperature Yesterday

Maximum temperature yesterday: 93 °F (at 2:00 PM)
Minimum temperature yesterday: 75 °F (at 6:00 AM)
Average temperature yesterday: 84 °F

High & Low Weather Summary for the Past Weeks

 TemperatureHumidityPressure
High95 °F (Feb 1, 2:30 PM)100% (Feb 8, 12:00 AM)30.07 "Hg (Feb 8, 12:00 AM)
Low64 °F (Feb 8, 6:00 AM)26% (Feb 10, 3:30 PM)29.71 "Hg (Feb 5, 3:30 PM)
Average84 °F55%29.86 "Hg
* Reported Jan 29 6:00 PM — Feb 13 6:30 PM, Phnom Penh, Weather by CustomWeather, © 2016

Note: Actual official high and low records may vary slightly from our data, if they occured in-between our weather recording intervals... More about our weather records

Advertising

Phnom Penh Weather History for the Previous 24 Hours

 ConditionsComfort  
Time TempWeatherWind HumidityBarometerVisibility
6:30 PM
Sat, Feb 13
88 °FClear.5 mph59%29.80 "Hg6 mi
6:00 PM88 °FSunny.6 mph59%29.77 "Hg10 mi
5:30 PM90 °FSunny.7 mph55%29.77 "Hg10 mi
5:00 PM91 °FPassing clouds.5 mph49%29.77 "HgN/A
4:30 PM93 °FSunny.3 mph44%29.77 "Hg10 mi
4:00 PM93 °FPassing clouds.5 mph47%29.77 "HgN/A
3:30 PM93 °FSunny.3 mph47%29.77 "Hg10 mi
3:00 PM91 °FPassing clouds.6 mph49%29.77 "HgN/A
2:30 PM93 °FPassing clouds.7 mph47%29.80 "HgN/A
2:00 PM91 °FPassing clouds.6 mph46%29.80 "HgN/A
1:30 PM91 °FPassing clouds.7 mph49%29.83 "HgN/A
1:00 PM91 °FPassing clouds.6 mph46%29.83 "HgN/A
12:30 PM90 °FPassing clouds.7 mph46%29.86 "HgN/A
12:00 PM90 °FPassing clouds.7 mph55%29.89 "HgN/A
11:30 AM88 °FPassing clouds.6 mph59%29.89 "HgN/A
11:00 AM86 °FPassing clouds.7 mph62%29.92 "HgN/A
10:30 AM86 °FPassing clouds.8 mph62%29.92 "HgN/A
10:00 AM86 °FPassing clouds.9 mph66%29.92 "HgN/A
9:30 AM84 °FSunny.10 mph70%29.92 "Hg10 mi
9:00 AM82 °FPassing clouds.9 mph74%29.92 "HgN/A
8:30 AM81 °FPassing clouds.8 mph79%29.92 "HgN/A
8:00 AM79 °FPassing clouds.7 mph84%29.92 "HgN/A
7:00 AM77 °FPassing clouds.3 mph89%29.89 "HgN/A
6:30 AM77 °FPassing clouds.5 mph89%29.89 "HgN/A
6:00 AM77 °FPassing clouds.5 mph89%29.86 "HgN/A
1:00 AM79 °FClear.2 mph84%29.83 "Hg6 mi
12:30 AM79 °FClear.1 mph84%29.83 "Hg6 mi
12:00 AM79 °FClear.2 mph84%29.83 "Hg6 mi
11:30 PM
Fri, Feb 12
81 °FClear.5 mph79%29.86 "Hg6 mi
11:00 PM81 °FClear.5 mph79%29.86 "Hg6 mi
10:30 PM81 °FClear.5 mph79%29.86 "Hg6 mi
10:00 PM81 °FClear.6 mph79%29.86 "Hg6 mi
9:30 PM81 °FClear.5 mph79%29.86 "Hg6 mi
9:00 PM82 °FClear.5 mph74%29.83 "Hg6 mi
8:30 PM82 °FClear.6 mph74%29.83 "Hg6 mi
8:00 PM82 °FClear.6 mph74%29.80 "Hg6 mi
Weather by CustomWeather, © 2016

See weather overviewHow to use our weather pages